Find Jindai

NORAD ID: 16910 Int'l Des: 1986-061 Owner: NASDA Country: J operational
LEOCIRCULAR

Live Position

Loading 3D Globe...

About Jindai

Description loading...

Upcoming Passes

Passes for default location (London). Set your location on the main map for personalized predictions.

Altitude History

Loading altitude history...

Two-Line Element Set

1 16910U 86061C 26106.62440506 -.00000107 00000-0 -99840-4 0 9994
2 16910 50.0037 241.8442 0072922 118.5166 256.4826 12.32655557786857
Epoch: Apr 16, 2026 • Age: 9 hours

Current Status

Altitude 1532.4 km
Velocity 7.10 km/s
Sub-Earth Point -15.74°S, 127.3°W
Launch Date Aug 12, 1986
Age 39.6 years
Type other

Technical Details

Classification Payload
Mass 294.00 kg
Dry Mass 294.00 kg
Total Mass 294.00 kg
Length 1.50 m
Diameter 1.00 m
Span 1.00 m
Shape Box
Manufacturer NAL
Bus Type NASDA Attached
Phase Status Attached in Orbit
Owner/State NASDA/J

Most Searched